• In United Kingdom
  • List of Countries
  • For 7 days
  • Water Temperature
  • Satellite Maps
  • Weather Map
  • Weather Widgets
  • user-avatar
    Login

    Hourly Weather Klagenfurt

    Today, 30 May, Tuesday

    Time Temperature Precipitation Wind Pressure Humidity
    00:00 +12°C° 0 mm 1 mps 689 mmHg 94%
    01:00 +12°C° 0 mm 1 mps 689 mmHg 94%
    02:00 +12°C° 0 mm 1 mps 689 mmHg 94%
    03:00 +11°C° 0 mm 1 mps 689 mmHg 94%
    04:00 +11°C° 0 mm 1 mps 688 mmHg 94%
    05:00 +14°C° 0 mm 1 mps 689 mmHg 87%
    06:00 +16°C° 0 mm 0 mps 690 mmHg 80%
    07:00 +18°C° 0 mm 0 mps 691 mmHg 73%
    08:00 +20°C° 0 mm 0 mps 691 mmHg 65%
    09:00 +24°C° 0 mm 1 mps 692 mmHg 57%
    10:00 +26°C° 0 mm 1 mps 692 mmHg 48%
    11:00 +27°C° 0.2 mm 1 mps 692 mmHg 48%
    12:00 +27°C° 0.2 mm 1 mps 692 mmHg 48%
    13:00 +27°C° 0.2 mm 2 mps 692 mmHg 47%
    14:00 +27°C° 0.4 mm 2 mps 692 mmHg 50%
    15:00 +26°C° 0.4 mm 2 mps 691 mmHg 54%
    16:00 +26°C° 0.4 mm 2 mps 691 mmHg 57%
    17:00 +24°C° 0.1 mm 2 mps 691 mmHg 65%
    18:00 +22°C° 0.1 mm 1 mps 691 mmHg 73%
    19:00 +20°C° 0.1 mm 1 mps 690 mmHg 81%
    20:00 +19°C° 0.6 mm 1 mps 690 mmHg 85%
    21:00 +16°C° 0.6 mm 1 mps 690 mmHg 88%
    22:00 +15°C° 0.6 mm 1 mps 691 mmHg 92%
    23:00 +15°C° 0.2 mm 1 mps 691 mmHg 92%

    Tomorrow, 31 May, Wednesday

    Time Temperature Precipitation Wind Pressure Humidity
    00:00 +14°C° 0.2 mm 1 mps 691 mmHg 93%
    01:00 +14°C° 0.2 mm 1 mps 691 mmHg 93%
    02:00 +14°C° 0.2 mm 1 mps 691 mmHg 93%
    03:00 +13°C° 0.2 mm 1 mps 691 mmHg 93%
    04:00 +13°C° 0.2 mm 1 mps 691 mmHg 93%
    05:00 +15°C° 0.3 mm 1 mps 691 mmHg 89%
    06:00 +18°C° 0.3 mm 1 mps 692 mmHg 84%
    07:00 +19°C° 0.3 mm 1 mps 693 mmHg 80%
    08:00 +21°C° 0.6 mm 1 mps 693 mmHg 74%
    09:00 +23°C° 0.6 mm 1 mps 693 mmHg 69%
    10:00 +22°C° 0.6 mm 0 mps 694 mmHg 63%
    11:00 +25°C° 1 mm 1 mps 694 mmHg 64%
    12:00 +25°C° 1 mm 1 mps 694 mmHg 64%
    13:00 +25°C° 1 mm 1 mps 694 mmHg 65%
    14:00 +24°C° 1.3 mm 1 mps 693 mmHg 68%
    15:00 +24°C° 1.3 mm 1 mps 693 mmHg 71%
    16:00 +24°C° 1.3 mm 1 mps 693 mmHg 74%
    17:00 +22°C° 1.2 mm 1 mps 693 mmHg 80%
    18:00 +21°C° 1.2 mm 1 mps 692 mmHg 85%
    19:00 +20°C° 1.2 mm 1 mps 692 mmHg 90%
    20:00 +19°C° 1.6 mm 1 mps 692 mmHg 92%
    21:00 +16°C° 1.6 mm 1 mps 692 mmHg 94%
    22:00 +15°C° 1.6 mm 1 mps 692 mmHg 96%
    23:00 +15°C° 1.5 mm 1 mps 692 mmHg 97%

    Day after tomorrow, 1 June, Thursday

    Time Temperature Precipitation Wind Pressure Humidity
    00:00 +14°C° 1.5 mm 1 mps 692 mmHg 97%
    01:00 +14°C° 1.5 mm 1 mps 692 mmHg 97%
    02:00 +14°C° 0.7 mm 1 mps 692 mmHg 97%
    03:00 +12°C° 0.7 mm 0 mps 692 mmHg 97%
    04:00 +12°C° 0.7 mm 0 mps 692 mmHg 97%
    05:00 +14°C° 0.3 mm 0 mps 692 mmHg 94%
    06:00 +15°C° 0.3 mm 0 mps 693 mmHg 90%
    07:00 +17°C° 0.3 mm 0 mps 693 mmHg 87%
    08:00 +18°C° 0.7 mm 0 mps 694 mmHg 82%
    09:00 +20°C° 0.7 mm 0 mps 694 mmHg 76%
    10:00 +23°C° 0.7 mm 1 mps 694 mmHg 71%
    11:00 +23°C° 1.2 mm 1 mps 694 mmHg 71%
    12:00 +24°C° 1.2 mm 1 mps 694 mmHg 70%
    13:00 +24°C° 1.2 mm 1 mps 694 mmHg 70%
    14:00 +24°C° 1.1 mm 1 mps 694 mmHg 69%
    15:00 +24°C° 1.1 mm 1 mps 694 mmHg 69%
    16:00 +23°C° 1.1 mm 1 mps 693 mmHg 69%
    17:00 +22°C° 0.7 mm 1 mps 693 mmHg 75%
    18:00 +21°C° 0.7 mm 1 mps 693 mmHg 81%
    19:00 +19°C° 0.7 mm 1 mps 693 mmHg 88%
    20:00 +16°C° 0.5 mm 1 mps 692 mmHg 90%
    21:00 +13°C° 0.5 mm 0 mps 692 mmHg 93%
    22:00 +11°C° 0.5 mm 0 mps 692 mmHg 95%
    23:00 +11°C° 0.2 mm 0 mps 692 mmHg 96%

    2 June, Friday

    Time Temperature Precipitation Wind Pressure Humidity
    00:00 +11°C° 0.2 mm 0 mps 692 mmHg 96%
    01:00 +11°C° 0.2 mm 0 mps 692 mmHg 97%
    02:00 +11°C° 0 mm 0 mps 692 mmHg 97%
    03:00 +11°C° 0 mm 0 mps 692 mmHg 97%
    04:00 +11°C° 0 mm 0 mps 692 mmHg 97%
    05:00 +13°C° 0 mm 0 mps 692 mmHg 94%
    06:00 +15°C° 0 mm 0 mps 692 mmHg 90%
    07:00 +17°C° 0 mm 0 mps 693 mmHg 86%
    08:00 +18°C° 0 mm 0 mps 693 mmHg 79%
    09:00 +21°C° 0 mm 1 mps 693 mmHg 71%
    10:00 +23°C° 0 mm 1 mps 694 mmHg 63%
    11:00 +24°C° 0.1 mm 1 mps 693 mmHg 60%
    12:00 +24°C° 0.1 mm 1 mps 693 mmHg 57%
    13:00 +25°C° 0.1 mm 2 mps 693 mmHg 53%
    14:00 +25°C° 0.2 mm 2 mps 693 mmHg 55%
    15:00 +24°C° 0.2 mm 2 mps 692 mmHg 56%
    16:00 +24°C° 0.2 mm 2 mps 692 mmHg 58%
    17:00 +22°C° 0.1 mm 1 mps 692 mmHg 67%
    18:00 +21°C° 0.1 mm 1 mps 691 mmHg 76%
    19:00 +19°C° 0.1 mm 1 mps 691 mmHg 85%
    20:00 +16°C° 0.1 mm 1 mps 691 mmHg 88%
    21:00 +14°C° 0.1 mm 1 mps 690 mmHg 91%
    22:00 +11°C° 0.1 mm 0 mps 690 mmHg 95%
    23:00 +10°C° 0 mm 0 mps 690 mmHg 95%

    3 June, Saturday

    Time Temperature Precipitation Wind Pressure Humidity
    00:00 +10°C° 0 mm 0 mps 690 mmHg 95%
    01:00 +10°C° 0 mm 0 mps 689 mmHg 95%
    02:00 +9°C° 0 mm 0 mps 689 mmHg 95%
    03:00 +9°C° 0 mm 0 mps 689 mmHg 95%
    04:00 +9°C° 0 mm 0 mps 689 mmHg 95%
    05:00 +12°C° 0 mm 0 mps 690 mmHg 88%
    06:00 +15°C° 0 mm 0 mps 690 mmHg 82%
    07:00 +18°C° 0 mm 0 mps 691 mmHg 75%
    08:00 +19°C° 0 mm 0 mps 691 mmHg 67%
    09:00 +21°C° 0 mm 0 mps 692 mmHg 60%
    10:00 +25°C° 0 mm 1 mps 692 mmHg 52%
    11:00 +26°C° 0.1 mm 1 mps 692 mmHg 50%
    12:00 +26°C° 0.1 mm 1 mps 692 mmHg 49%
    13:00 +26°C° 0.1 mm 1 mps 691 mmHg 47%
    14:00 +26°C° 0.2 mm 1 mps 691 mmHg 50%
    15:00 +26°C° 0.2 mm 1 mps 691 mmHg 52%
    16:00 +25°C° 0.2 mm 1 mps 691 mmHg 54%
    17:00 +24°C° 0.1 mm 1 mps 690 mmHg 64%
    18:00 +22°C° 0.1 mm 1 mps 690 mmHg 73%
    19:00 +20°C° 0.1 mm 1 mps 690 mmHg 83%
    20:00 +18°C° 0.1 mm 1 mps 689 mmHg 87%
    21:00 +15°C° 0.1 mm 1 mps 689 mmHg 90%
    22:00 +11°C° 0.1 mm 0 mps 689 mmHg 94%
    23:00 +11°C° 0 mm 0 mps 689 mmHg 94%

    4 June, Sunday

    Time Temperature Precipitation Wind Pressure Humidity
    00:00 +11°C° 0 mm 0 mps 689 mmHg 94%
    01:00 +11°C° 0 mm 0 mps 689 mmHg 95%
    02:00 +10°C° 0 mm 0 mps 688 mmHg 95%
    03:00 +10°C° 0 mm 0 mps 688 mmHg 95%
    04:00 +11°C° 0 mm 1 mps 688 mmHg 95%
    05:00 +13°C° 0 mm 0 mps 689 mmHg 89%
    06:00 +16°C° 0 mm 0 mps 689 mmHg 82%
    07:00 +18°C° 0 mm 0 mps 690 mmHg 76%
    08:00 +22°C° 0 mm 1 mps 690 mmHg 68%
    09:00 +23°C° 0 mm 1 mps 690 mmHg 60%
    10:00 +25°C° 0 mm 2 mps 691 mmHg 53%
    11:00 +26°C° 0 mm 2 mps 691 mmHg 50%
    12:00 +26°C° 0 mm 2 mps 691 mmHg 48%
    13:00 +27°C° 0 mm 2 mps 690 mmHg 46%
    14:00 +27°C° 0 mm 3 mps 690 mmHg 47%
    15:00 +27°C° 0 mm 3 mps 690 mmHg 49%
    16:00 +26°C° 0 mm 3 mps 689 mmHg 50%
    17:00 +25°C° 0 mm 2 mps 689 mmHg 60%
    18:00 +23°C° 0 mm 2 mps 688 mmHg 69%
    19:00 +21°C° 0 mm 1 mps 688 mmHg 78%
    20:00 +19°C° 0 mm 1 mps 688 mmHg 83%
    21:00 +16°C° 0 mm 1 mps 688 mmHg 88%
    22:00 +14°C° 0 mm 1 mps 687 mmHg 93%
    23:00 +14°C° 0 mm 1 mps 687 mmHg 93%
    Show more